Denver, CO

7:58 PM MDT on April 26, 2017 (GMT -0600)
Front Range

Weather History for KFTG - October, 2012

Change the Weather History Date:

Friday, October 12, 2012

  Actual Average (KBKF) Record (KBKF)
Temperature  
Mean Temperature 53 °F -  
Max Temperature 71 °F 65 °F 80 °F (1996)
Min Temperature 35 °F 37 °F 30 °F (2002)
Degree Days  
Heating Degree Days 12    
Growing Degree Days 3 (Base 50)    
Moisture  
Dew Point 38 °F    
Average Humidity 73    
Maximum Humidity 88    
Minimum Humidity 31    
Precipitation  
Precipitation 0.00 in - - ()
Sea Level Pressure  
Sea Level Pressure 30.09 in    
Wind  
Wind Speed 9 mph (SW)    
Max Wind Speed 16 mph    
Max Gust Speed -    
Visibility 10 miles    
Events Thunderstorm    
Averages and records for this station are not official NWS values.
T = Trace of Precipitation, MM = Missing Value Source: NWS Daily Summary

Daily Weather History Graph

Daily Weather History Graph

Search for Another Location

Airport or City:

Trip Planner

Search our weather history database for the weather conditions in past years. The results will help you decide how hot, cold, wet, or windy it might be!

Date:

Astronomy

Oct. 12, 2012 Rise Set
Actual Time 7:05 AM MDT 6:22 PM MDT
Civil Twilight 6:38 AM MDT 6:49 PM MDT
Nautical Twilight 6:07 AM MDT 7:20 PM MDT
Astronomical Twilight 5:36 AM MDT 7:52 PM MDT
Moon 3:51 AM MDT (10/12) 4:33 PM MDT (10/12)
Length of Visible Light 12h 10m
Length of Day
11h 16m
Waning Crescent, 10% of the Moon is Illuminated
Oct 12
Waning Crescent
Oct 15
New
Oct 21
First Quarter
Oct 29
Full
Nov 6
Last Quarter

Hourly Weather History & Observations

Time (MDT) Temp. Windchill Dew Point Humidity Pressure Visibility Wind Dir Wind Speed Gust Speed Precip Events Conditions
12:16 AM 44.6 °F 38.1 °F 33.8 °F 66% 30.24 in 10.0 mi SE 13.8 mph - N/A   Clear
12:36 AM 42.8 °F 35.1 °F 33.8 °F 70% 30.22 in 10.0 mi SE 16.1 mph - N/A   Clear
12:56 AM 44.6 °F 38.4 °F 33.8 °F 66% 30.22 in 10.0 mi SE 12.7 mph - N/A   Clear
1:15 AM 44.6 °F 38.8 °F 33.8 °F 66% 30.21 in 10.0 mi SE 11.5 mph - N/A   Clear
1:34 AM 42.8 °F 38.0 °F 33.8 °F 70% 30.21 in 10.0 mi ESE 8.1 mph - N/A   Clear
1:53 AM 44.6 °F 40.2 °F 35.6 °F 71% 30.20 in 10.0 mi SSE 8.1 mph - N/A   Clear
2:13 AM 46.4 °F 43.5 °F 35.6 °F 66% 30.20 in 10.0 mi South 5.8 mph - N/A   Clear
2:32 AM 46.4 °F 45.2 °F 35.6 °F 66% 30.19 in 10.0 mi South 3.5 mph - N/A   Clear
2:56 AM 46.4 °F 41.9 °F 35.6 °F 66% 30.17 in 10.0 mi South 9.2 mph - N/A   Clear
3:16 AM 48.2 °F - 35.6 °F 62% 30.16 in 10.0 mi SW 6.9 mph - N/A   Clear
3:35 AM 42.8 °F 37.0 °F 35.6 °F 76% 30.16 in 10.0 mi West 10.4 mph - N/A   Clear
3:56 AM 41.0 °F 36.4 °F 33.8 °F 76% 30.14 in 10.0 mi West 6.9 mph - N/A   Clear
4:16 AM 39.2 °F 33.6 °F 33.8 °F 81% 30.14 in 10.0 mi West 8.1 mph - N/A   Clear
4:56 AM 37.4 °F 30.8 °F 33.8 °F 87% 30.15 in 10.0 mi West 9.2 mph - N/A   Clear
5:16 AM 37.4 °F 31.4 °F 33.8 °F 87% 30.16 in 10.0 mi WSW 8.1 mph - N/A   Clear
5:34 AM 37.4 °F 32.8 °F 33.8 °F 87% 30.15 in 10.0 mi WSW 5.8 mph - N/A   Clear
5:56 AM 35.6 °F 29.2 °F 32.0 °F 87% 30.14 in 10.0 mi WSW 8.1 mph - N/A   Clear
6:16 AM 35.6 °F 29.2 °F 32.0 °F 87% 30.14 in 10.0 mi WSW 8.1 mph - N/A   Clear
6:29 AM 35.6 °F 29.2 °F 32.0 °F 87% 30.14 in 10.0 mi WSW 8.1 mph - N/A   Clear
6:49 AM 35.6 °F 28.6 °F 32.0 °F 87% 30.14 in 10.0 mi West 9.2 mph - N/A   Clear
6:57 AM 35.6 °F 29.2 °F 32.0 °F 87% 30.14 in 10.0 mi West 8.1 mph - N/A   Clear
8:47 AM 41.0 °F 38.0 °F 35.6 °F 81% 30.14 in 30.0 mi WSW 4.6 mph - N/A   Mostly Cloudy
11:47 AM 53.6 °F - 37.4 °F 54% 30.07 in 30.0 mi Calm Calm - N/A   Mostly Cloudy
12:47 PM 57.2 °F - 39.2 °F 51% 30.06 in 30.0 mi ESE 6.9 mph - N/A   Overcast
2:47 PM 71.6 °F - 39.2 °F 31% 29.94 in 30.0 mi South 4.6 mph - N/A   Mostly Cloudy
3:58 PM 68.0 °F - 42.8 °F 40% 29.92 in 30.0 mi NNW 4.6 mph - N/A   Mostly Cloudy
4:47 PM 69.8 °F - 41.0 °F 35% 29.91 in 30.0 mi South 11.5 mph - N/A   Mostly Cloudy
5:47 PM 57.2 °F - 51.8 °F 82% 29.93 in 30.0 mi WSW 9.2 mph - N/A   Mostly Cloudy
6:47 PM 55.4 °F - 50.0 °F 82% 29.94 in 20.0 mi South 5.8 mph - N/A   Mostly Cloudy
8:47 PM 51.8 °F - 48.2 °F 88% 29.92 in 10.0 mi WNW 5.8 mph - N/A   Mostly Cloudy
9:17 PM 53.6 °F - 46.4 °F 77% 29.93 in 10.0 mi North 4.6 mph - N/A   Clear
9:51 PM 53.6 °F - 46.4 °F 77% 29.94 in 10.0 mi SW 5.8 mph - N/A   Clear
9:57 PM 53.6 °F - 46.4 °F 77% 29.95 in 10.0 mi SSW 10.4 mph - N/A   Clear
10:36 PM 50.0 °F - 44.6 °F 82% 29.93 in 10.0 mi WSW 4.6 mph - N/A Thunderstorm Thunderstorm
10:53 PM 48.2 °F - 44.6 °F 87% 29.93 in 10.0 mi WSW 9.2 mph - N/A Thunderstorm Thunderstorm
11:14 PM 46.4 °F 41.5 °F 42.8 °F 87% 29.93 in 10.0 mi WSW 10.4 mph - N/A   Clear